Weather reports worldwide

Advertisment
Camborne, United Kingdom (3808): temperature & dewpoint: 02.08.2020 16:00:00 - 08.08.2020 16:00:00 (BST)Camborne, United Kingdom (3808): temperature -20cm & temperature -100cm: 02.08.2020 16:00:00 - 08.08.2020 16:00:00 (BST)Camborne, United Kingdom (3808): wind speed & gusts: 02.08.2020 16:00:00 - 08.08.2020 16:00:00 (BST)Camborne, United Kingdom (3808): wind direction: 02.08.2020 16:00:00 - 08.08.2020 16:00:00 (BST)Camborne, United Kingdom (3808): reduced air pressure: 02.08.2020 16:00:00 - 08.08.2020 16:00:00 (BST)Camborne, United Kingdom (3808): visibility: 02.08.2020 16:00:00 - 08.08.2020 16:00:00 (BST)Camborne, United Kingdom (3808): sunshine duration: 02.08.2020 16:00:00 - 08.08.2020 16:00:00 (BST)Camborne, United Kingdom (3808): precipitation: 02.08.2020 16:00:00 - 08.08.2020 16:00:00 (BST)
Date & Time tt [°C] td [°C] tt -20cm [°C] tt -100cm [°C] ff [km/h] ff [kn] fx [km/h] fx [kn] dd ppp [hPa] vv [km] sd [min] rr [mm]
08.08.2020 16:00:00 - - - - - - - - - - - - -
08.08.2020 15:00:00 16,5 15,5 - - 18 10 - - N 1022,4 17 0 0,0
08.08.2020 14:00:00 17,0 15,4 - - 18 10 - - N 1022,4 30 0 0,0
08.08.2020 13:00:00 16,9 15,1 - - 18 10 - - N 1022,3 35 0 0,0
08.08.2020 12:00:00 16,9 14,7 - - 18 10 - - N 1022,2 35 48 0,0
08.08.2020 11:00:00 17,3 14,9 - - 16 9 - - N 1022,0 45 60 0,0
08.08.2020 10:00:00 16,9 14,7 18,7 17,4 16 9 - - N 1022,0 40 54 0,0
08.08.2020 09:00:00 16,3 14,9 - - 16 9 - - N 1022,3 35 42 0,0
08.08.2020 08:00:00 15,6 14,8 - - 16 9 - - N 1021,9 35 36 0,0
08.08.2020 07:00:00 15,1 14,7 - - 11 6 - - N 1021,6 30 12 0,0
08.08.2020 06:00:00 15,0 14,8 - - 15 8 - - N 1021,4 16 0 0,0
08.08.2020 05:00:00 15,1 14,9 - - 15 8 - - N 1021,2 14 0 0,0
08.08.2020 04:00:00 15,3 15,3 - - 15 8 - - N 1021,2 10 0 0,2
08.08.2020 03:00:00 15,3 15,3 - - 15 8 - - N 1021,1 0,1 0 0,0
08.08.2020 02:00:00 15,2 15,2 - - 13 7 - - N 1021,2 0,1 0 0,0
08.08.2020 01:00:00 15,7 15,7 - - 13 7 - - NNW 1021,3 0,1 - 0,0
08.08.2020 00:00:00 16,0 16,0 - - 13 7 - - NNW 1021,4 0,1 0 0,2
07.08.2020 23:00:00 16,5 16,5 - - 9 5 - - NNW 1021,0 0,1 0 0,0
07.08.2020 22:00:00 16,6 16,6 - - 8 4 - - NNW 1020,4 0,1 0 0,0
07.08.2020 21:00:00 16,9 16,9 - - 11 6 - - N 1019,6 0,1 0 0,0
07.08.2020 20:00:00 17,1 17,1 - - 13 7 - - N 1019,0 0,2 0 0,0
07.08.2020 19:00:00 17,2 17,2 - - 9 5 - - N 1018,8 0,1 0 0,0
07.08.2020 18:00:00 17,7 17,1 - - 11 6 - - NNW 1018,9 0,7 0 0,0
07.08.2020 17:00:00 18,2 17,1 - - 13 7 - - NNW 1019,0 75 0 0,0
07.08.2020 16:00:00 19,6 16,8 - - 15 8 - - NW 1018,9 75 48 0,0
07.08.2020 15:00:00 20,7 17,0 - - 13 7 - - NW 1018,7 75 60 0,0
07.08.2020 14:00:00 21,0 16,7 - - 13 7 - - NNW 1018,3 75 60 0,0
07.08.2020 13:00:00 21,3 16,7 - - 11 6 - - NNW 1018,2 75 60 0,0
07.08.2020 12:00:00 21,1 16,6 - - 13 7 - - NNW 1018,2 75 60 0,0
07.08.2020 11:00:00 21,4 15,4 - - 5 3 - - SSW 1017,8 70 60 0,0
07.08.2020 10:00:00 17,8 17,4 18,2 17,2 9 5 - - SE 1018,1 30 12 0,0
07.08.2020 09:00:00 16,2 16,2 - - 5 3 - - SW 1018,4 0,1 0 0,0
07.08.2020 08:00:00 16,2 16,2 - - 8 4 - - S 1017,9 1,6 0 0,0
07.08.2020 07:00:00 15,8 15,8 - - 11 6 - - SSE 1017,6 0,2 0 0,0
07.08.2020 06:00:00 16,2 16,2 - - 8 4 - - S 1017,3 1,0 0 0,0
07.08.2020 05:00:00 16,2 16,1 - - 9 5 - - SSE 1017,4 11 0 0,0
07.08.2020 04:00:00 16,8 16,7 - - 4 2 - - S 1017,6 0,2 0 0,0
07.08.2020 03:00:00 17,0 17,0 - - 8 4 - - SSE 1017,7 1,0 0 0,0
07.08.2020 02:00:00 16,9 16,8 - - 11 6 - - SSE 1017,4 5 0 0,0
07.08.2020 01:00:00 16,9 16,9 - - 11 6 - - S 1017,6 0,2 - 0,0
07.08.2020 00:00:00 17,2 17,2 - - 9 5 - - S 1017,5 0,1 0 0,0
06.08.2020 23:00:00 17,3 17,1 - - 11 6 - - S 1017,4 2,8 0 0,0
06.08.2020 22:00:00 17,3 17,1 - - 11 6 - - S 1017,3 5 0 0,0
06.08.2020 21:00:00 17,7 17,5 - - 13 7 - - S 1016,7 2,3 0 0,0
06.08.2020 20:00:00 18,2 17,8 - - 16 9 - - S 1016,4 11 0 0,0
06.08.2020 19:00:00 18,5 18,0 - - 16 9 - - S 1016,3 6 0 0,2
06.08.2020 18:00:00 18,5 18,3 - - 16 9 - - S 1016,1 3,4 0 0,0
06.08.2020 17:00:00 18,7 18,4 - - 18 10 - - S 1016,0 1,7 0 0,2
06.08.2020 16:00:00 18,9 18,5 - - 21 11 - - S 1016,0 3,5 0 0,0
06.08.2020 15:00:00 19,1 18,7 - - 21 11 - - SSW 1016,1 1,5 0 0,2
06.08.2020 14:00:00 19,2 18,7 - - 18 10 - - S 1015,9 2,3 0 0,2
06.08.2020 13:00:00 19,7 18,6 - - 18 10 - - S 1015,7 5 0 0,0
06.08.2020 12:00:00 21,3 18,0 - - 15 8 - - S 1015,2 75 36 0,0
06.08.2020 11:00:00 20,0 17,7 - - 13 7 - - S 1015,1 50 18 0,0
06.08.2020 10:00:00 17,5 16,9 17,7 17,2 8 4 - - S 1015,3 30 0 0,0
06.08.2020 09:00:00 17,0 16,4 - - 8 4 - - S 1015,2 65 0 0,0
06.08.2020 08:00:00 16,1 16,0 - - 5 3 - - SE 1014,8 7 0 0,0
06.08.2020 07:00:00 15,6 15,5 - - 5 3 - - S 1014,7 1,0 0 0,2
06.08.2020 06:00:00 15,5 15,2 - - 4 2 - - S 1014,3 1,4 0 0,0
06.08.2020 05:00:00 15,4 15,1 - - 5 3 - - SSE 1014,1 12 0 0,0
06.08.2020 04:00:00 15,4 14,9 - - 8 4 - - SSE 1014,3 35 0 0,0
06.08.2020 03:00:00 15,2 15,0 - - 5 3 - - ESE 1014,3 20 0 0,0
06.08.2020 02:00:00 15,3 15,0 - - 0 0 - - N 1014,3 14 0 0,0
06.08.2020 01:00:00 15,4 14,9 - - 8 4 - - W 1014,4 3,3 - 0,0
06.08.2020 00:00:00 15,8 15,4 - - 2 1 - - S 1014,1 21 0 0,0
05.08.2020 23:00:00 15,8 15,3 - - 8 4 - - WSW 1013,8 6 0 0,0
05.08.2020 22:00:00 15,8 15,2 - - 9 5 - - W 1013,4 8 0 0,0
05.08.2020 21:00:00 16,3 15,6 - - 9 5 - - WSW 1012,7 35 0 0,0
05.08.2020 20:00:00 16,9 16,5 - - 11 6 - - SW 1012,1 9 0 0,0
05.08.2020 19:00:00 17,4 17,0 - - 16 9 - - SW 1011,5 13 0 0,0
05.08.2020 18:00:00 17,5 17,1 - - 16 9 - - SW 1011,1 15 0 0,0
05.08.2020 17:00:00 17,9 17,7 - - 28 15 46 25 SW 1011,0 2,5 0 0,2
05.08.2020 16:00:00 17,7 17,5 - - 29 16 50 27 SSW 1010,7 2,0 0 0,2
05.08.2020 15:00:00 17,4 17,1 - - 34 18 54 29 SSW 1010,5 2,3 0 0,2
05.08.2020 14:00:00 17,1 16,8 - - 31 17 50 27 SSW 1010,2 2,7 0 1,0
05.08.2020 13:00:00 17,3 16,9 - - 29 16 55 30 SSW 1009,9 1,3 0 1,4
05.08.2020 12:00:00 18,4 16,3 - - 34 18 55 30 S 1009,8 27 0 0,0
05.08.2020 11:00:00 18,4 16,1 - - 31 17 55 30 S 1009,8 30 6 0,0
05.08.2020 10:00:00 18,3 16,2 17,7 17,2 31 17 57 31 SSW 1010,0 30 0 0,0
05.08.2020 09:00:00 17,3 15,9 - - 26 14 - - S 1010,3 28 0 0,0
05.08.2020 08:00:00 17,3 16,1 - - 24 13 - - SSW 1010,4 28 0 0,0
05.08.2020 07:00:00 16,8 15,5 - - 24 13 - - SSW 1010,6 30 0 0,0
05.08.2020 06:00:00 16,5 15,6 - - 21 11 - - SSW 1010,9 23 0 0,0
05.08.2020 05:00:00 16,6 15,4 - - 18 10 - - SSW 1011,1 29 0 0,0
05.08.2020 04:00:00 16,7 16,0 - - 18 10 - - SSW 1011,6 20 0 0,0
05.08.2020 03:00:00 16,6 16,1 - - 21 11 - - SSW 1012,2 19 0 0,0
05.08.2020 02:00:00 16,7 16,2 - - 22 12 - - SSW 1012,4 9 0 0,0
05.08.2020 01:00:00 16,6 16,1 - - 22 12 - - SSW 1012,9 16 - 0,0
05.08.2020 00:00:00 16,4 16,2 - - 21 11 - - SSW 1013,4 6 0 0,0
04.08.2020 23:00:00 16,3 15,9 - - 22 12 - - SSW 1013,6 11 0 0,2
04.08.2020 22:00:00 16,3 15,3 - - 24 13 - - SSW 1013,8 3,4 0 0,0
04.08.2020 21:00:00 16,5 14,6 - - 28 15 46 25 SSW 1013,7 30 0 0,0
04.08.2020 20:00:00 16,9 14,8 - - 26 14 46 25 SSW 1013,6 30 0 0,0
04.08.2020 19:00:00 17,0 15,0 - - 26 14 - - SSW 1014,1 15 0 0,0
04.08.2020 18:00:00 17,1 14,5 - - 26 14 54 29 SSW 1014,9 22 0 0,0
04.08.2020 17:00:00 17,2 14,3 - - 24 13 46 25 SSW 1015,1 25 0 0,0
04.08.2020 16:00:00 17,0 13,9 - - 28 15 46 25 SSW 1015,8 25 0 0,0
04.08.2020 15:00:00 17,1 13,5 - - 24 13 - - SSW 1016,5 35 0 0,0
04.08.2020 14:00:00 17,3 13,4 - - 24 13 - - SSW 1016,7 40 0 0,0
04.08.2020 13:00:00 17,2 12,9 - - 29 16 48 26 SW 1016,9 40 0 0,0
04.08.2020 12:00:00 17,3 12,2 - - 24 13 - - SSW 1017,2 50 0 0,0
04.08.2020 11:00:00 17,2 12,0 - - 28 15 - - SW 1017,1 50 6 0,0
04.08.2020 10:00:00 17,3 12,5 18,0 17,2 26 14 - - SSW 1017,4 50 24 0,0
04.08.2020 09:00:00 16,6 12,4 - - 16 9 - - SSW 1017,5 50 12 0,0
04.08.2020 08:00:00 14,5 11,8 - - 11 6 - - S 1017,9 50 18 0,0
04.08.2020 07:00:00 12,4 10,8 - - 8 4 - - S 1018,1 60 6 0,0
04.08.2020 06:00:00 11,9 10,8 - - 9 5 - - SSE 1018,2 55 0 0,0
04.08.2020 05:00:00 12,0 10,5 - - 8 4 - - S 1018,6 65 0 0,0
04.08.2020 04:00:00 11,6 10,0 - - 8 4 - - S 1018,9 75 0 0,0
04.08.2020 03:00:00 11,3 10,0 - - 9 5 - - SSE 1019,1 65 0 0,0
04.08.2020 02:00:00 11,2 9,9 - - 8 4 - - S 1020,0 65 0 0,0
04.08.2020 01:00:00 11,7 10,1 - - 5 3 - - S 1020,2 65 - 0,0
04.08.2020 00:00:00 11,5 10,1 - - 8 4 - - S 1020,4 55 0 0,0
03.08.2020 23:00:00 12,3 10,7 - - 5 3 - - SW 1020,2 40 0 0,0
03.08.2020 22:00:00 12,5 11,2 - - 8 4 - - W 1020,1 50 0 0,0
03.08.2020 21:00:00 13,7 11,4 - - 5 3 - - W 1019,8 60 24 0,0
03.08.2020 20:00:00 15,9 11,1 - - 9 5 - - NW 1019,6 75 60 0,0
03.08.2020 19:00:00 16,3 10,7 - - 11 6 - - NW 1019,5 50 60 0,0
03.08.2020 18:00:00 16,6 10,8 - - 11 6 - - NW 1019,6 50 60 0,0
03.08.2020 17:00:00 16,5 11,4 - - 13 7 - - NW 1019,8 50 54 0,0
03.08.2020 16:00:00 16,7 11,7 - - 15 8 - - NNW 1019,5 50 60 0,0
03.08.2020 15:00:00 17,1 11,3 - - 15 8 - - NNW 1019,6 50 60 0,0
03.08.2020 14:00:00 16,8 11,8 - - 16 9 - - NW 1019,7 50 60 0,0
03.08.2020 13:00:00 17,1 11,8 - - 16 9 - - NNW 1019,8 50 54 0,0
03.08.2020 12:00:00 16,7 12,2 - - 15 8 - - NNW 1019,9 50 60 0,0
03.08.2020 11:00:00 17,1 11,9 - - 15 8 - - NNW 1019,7 50 60 0,0
03.08.2020 10:00:00 16,3 12,0 18,0 17,2 11 6 - - N 1019,2 50 54 0,0
03.08.2020 09:00:00 15,5 13,3 - - 5 3 - - WNW 1019,1 40 24 0,0
03.08.2020 08:00:00 13,4 12,8 - - 8 4 - - W 1018,9 40 12 0,0
03.08.2020 07:00:00 11,7 11,3 - - 5 3 - - WSW 1018,7 35 0 0,0
03.08.2020 06:00:00 11,4 10,9 - - 5 3 - - WSW 1018,3 35 0 0,0
03.08.2020 05:00:00 11,5 11,0 - - 5 3 - - WSW 1018,2 25 0 0,0
03.08.2020 04:00:00 11,7 11,3 - - 8 4 - - W 1018,4 30 0 0,0
03.08.2020 03:00:00 12,0 11,6 - - 8 4 - - W 1018,6 30 0 0,0
03.08.2020 02:00:00 12,0 11,3 - - 5 3 - - WSW 1018,8 35 0 0,0
03.08.2020 01:00:00 12,2 11,3 - - 5 3 - - SSW 1018,9 35 - 0,0
03.08.2020 00:00:00 12,6 11,7 - - 4 2 - - SSW 1019,0 35 0 0,0
02.08.2020 23:00:00 12,8 12,0 - - 5 3 - - WSW 1019,1 30 0 0,0
02.08.2020 22:00:00 13,2 11,8 - - 8 4 - - W 1019,0 40 0 0,0
02.08.2020 21:00:00 14,1 11,9 - - 5 3 - - W 1018,6 40 18 0,0
02.08.2020 20:00:00 15,3 11,6 - - 11 6 - - W 1018,7 45 6 0,0
02.08.2020 19:00:00 15,7 11,7 - - 11 6 - - NW 1018,7 35 12 0,0
02.08.2020 18:00:00 16,7 10,7 - - 16 9 - - WNW 1018,9 50 18 0,0
02.08.2020 17:00:00 16,6 11,3 - - 18 10 - - W 1019,0 50 30 0,0
02.08.2020 16:00:00 17,8 11,5 - - 16 9 - - WNW 1019,1 50 60 0,0

tt = temperature
td = dewpoint
tt -20cm = temperature -20cm
tt -100cm = temperature -100cm
ff = wind speed
fx = gusts
dd = wind direction
ppp = reduced air pressure
vv = visibility
sd = sunshine duration
rr = precipitation

Next stations